Hourly Data Report for August 12, 2003

TORONTO CITY
ONTARIO

43°40'00.000" N
79°24'00.000" W
112.50 m
6158355
71508
XTO

Download Data

Hourly Data (August 2003)
Hourly Data Report for August 12, 2003
TIME
LST
Temp Definition
°C
Dew Point Definition
°C
Rel Hum Definition
%
Precip. Amount Definition
mm

Wind Dir Definition
10's deg

Wind Spd Definition
km/h
Visibility Definition
km
Stn Press Definition
kPa
Hmdx Definition


Wind Chill Definition


Weather Definition


00:00 21.6 19.5 88   LegendMM LegendMM LegendMM 100.39 29   LegendNANA
01:00 21.3 19.4 89   LegendMM LegendMM LegendMM 100.39 28   LegendNANA
02:00 21.5 19.2 87   LegendMM LegendMM LegendMM 100.41 28   LegendNANA
03:00 21.2 18.7 86   LegendMM LegendMM LegendMM 100.45 28   LegendNANA
04:00 21.0 18.3 85   LegendMM LegendMM LegendMM 100.48 27   LegendNANA
05:00 20.9 18.3 85   LegendMM LegendMM LegendMM 100.49 27   LegendNANA
06:00 20.8 18.1 85   LegendMM LegendMM LegendMM 100.53 27   LegendNANA
07:00 20.9 18.0 83   LegendMM LegendMM LegendMM 100.58 27   LegendNANA
08:00 21.5 18.2 81   LegendMM LegendMM LegendMM 100.62 28   LegendNANA
09:00 22.3 18.7 80   LegendMM LegendMM LegendMM 100.66 29   LegendNANA
10:00 23.0 19.3 80   LegendMM LegendMM LegendMM 100.68 30   LegendNANA
11:00 23.8 19.5 77   LegendMM LegendMM LegendMM 100.70 31   LegendNANA
12:00 24.0 20.3 80   LegendMM LegendMM LegendMM 100.72 32   LegendNANA
13:00 25.9 21.0 74   LegendMM LegendMM LegendMM 100.69 34   LegendNANA
14:00 26.5 21.1 72   LegendMM LegendMM LegendMM 100.69 35   LegendNANA
15:00 25.7 20.2 72   LegendMM LegendMM LegendMM 100.67 33   LegendNANA
16:00 25.8 20.6 73   LegendMM LegendMM LegendMM 100.67 34   LegendNANA
17:00 24.7 20.7 78   LegendMM LegendMM LegendMM 100.70 33   LegendNANA
18:00 24.0 20.7 82   LegendMM LegendMM LegendMM 100.78 32   LegendNANA
19:00 23.7 20.9 84   LegendMM LegendMM LegendMM 100.81 32   LegendNANA
20:00 23.3 20.6 85   LegendMM LegendMM LegendMM 100.86 31   LegendNANA
21:00 22.8 20.6 87   LegendMM LegendMM LegendMM 100.92 31   LegendNANA
22:00 22.8 20.7 88   LegendMM LegendMM LegendMM 100.93 31   LegendNANA
23:00 22.3 20.6 90   LegendMM LegendMM LegendMM 100.91 30   LegendNANA

Notes on Data Quality.

Legend

  • E = Estimated
  • M = Missing
  • NA = Not Available*
  • [empty] = Indicates an unobserved value
Date modified: